TimeCST,TemperatureF,Dew PointF,Humidity,Sea Level PressureIn,VisibilityMPH,Wind Direction,Wind SpeedMPH,Gust SpeedMPH,PrecipitationIn,Events,Conditions,WindDirDegrees,DateUTC
12:10 AM,3.2,-0.4,85,30.23,10.0,WNW,9.2,-,N/A,,Clear,300,2013-02-15 06:10:00
12:31 AM,3.2,-0.4,85,30.23,10.0,WNW,9.2,-,N/A,,Clear,290,2013-02-15 06:31:00
12:50 AM,3.2,-0.4,85,30.24,10.0,West,9.2,-,N/A,,Scattered Clouds,280,2013-02-15 06:50:00
1:11 AM,5.0,-0.4,78,30.24,10.0,WNW,10.4,-,N/A,,Overcast,300,2013-02-15 07:11:00
1:30 AM,5.0,1.4,85,30.23,10.0,WNW,10.4,-,N/A,,Overcast,300,2013-02-15 07:30:00
1:50 AM,5.0,1.4,85,30.23,10.0,WNW,10.4,-,N/A,,Overcast,300,2013-02-15 07:50:00
2:11 AM,5.0,-0.4,78,30.24,10.0,WNW,8.1,-,N/A,,Mostly Cloudy,300,2013-02-15 08:11:00
2:31 AM,3.2,-0.4,85,30.24,10.0,WNW,8.1,-,N/A,,Scattered Clouds,300,2013-02-15 08:31:00
2:51 AM,3.2,-0.4,85,30.25,10.0,WNW,9.2,-,N/A,,Clear,290,2013-02-15 08:51:00
3:11 AM,3.2,-0.4,85,30.25,10.0,WNW,9.2,-,N/A,,Clear,290,2013-02-15 09:11:00
3:31 AM,3.2,-0.4,85,30.25,10.0,WNW,9.2,-,N/A,,Clear,290,2013-02-15 09:31:00
3:51 AM,1.4,-2.2,85,30.25,10.0,West,8.1,-,N/A,,Scattered Clouds,280,2013-02-15 09:51:00
4:11 AM,3.2,-0.4,85,30.25,10.0,Calm,Calm,-,N/A,,Mostly Cloudy,0,2013-02-15 10:11:00
4:31 AM,3.2,-0.4,85,30.25,10.0,WNW,8.1,-,N/A,,Mostly Cloudy,290,2013-02-15 10:31:00
4:51 AM,3.2,-0.4,85,30.26,10.0,NW,6.9,-,N/A,,Clear,310,2013-02-15 10:51:00
5:11 AM,1.4,-4.0,78,30.26,10.0,Calm,Calm,-,N/A,,Clear,0,2013-02-15 11:11:00
5:30 AM,1.4,-4.0,78,30.26,10.0,Calm,Calm,-,N/A,,Clear,0,2013-02-15 11:30:00
5:51 AM,1.4,-4.0,78,30.27,10.0,WNW,5.8,-,N/A,,Clear,300,2013-02-15 11:51:00
6:11 AM,1.4,-4.0,78,30.27,10.0,Calm,Calm,-,N/A,,Clear,0,2013-02-15 12:11:00
6:30 AM,-0.4,-4.0,85,30.28,10.0,NW,5.8,-,N/A,,Clear,310,2013-02-15 12:30:00
6:51 AM,-0.4,-4.0,85,30.28,10.0,Calm,Calm,-,N/A,,Clear,0,2013-02-15 12:51:00
7:10 AM,-0.4,-5.8,78,30.28,10.0,Calm,Calm,-,N/A,,Clear,0,2013-02-15 13:10:00
7:31 AM,-2.2,-5.8,85,30.29,10.0,Calm,Calm,-,N/A,,Clear,0,2013-02-15 13:31:00
7:51 AM,-2.2,-5.8,85,30.30,10.0,Calm,Calm,-,N/A,,Clear,0,2013-02-15 13:51:00
8:10 AM,1.4,-4.0,78,30.30,10.0,NW,4.6,-,N/A,,Clear,310,2013-02-15 14:10:00
8:31 AM,1.4,-4.0,78,30.31,10.0,NW,5.8,-,N/A,,Clear,320,2013-02-15 14:31:00
8:51 AM,1.4,-4.0,78,30.31,10.0,NW,6.9,-,N/A,,Clear,320,2013-02-15 14:51:00
9:10 AM,1.4,-4.0,78,30.32,5.0,NW,6.9,-,N/A,,Clear,320,2013-02-15 15:10:00
9:30 AM,3.2,-0.4,85,30.32,10.0,NW,8.1,-,N/A,,Clear,320,2013-02-15 15:30:00
9:51 AM,3.2,-0.4,85,30.32,10.0,NW,6.9,-,N/A,,Clear,320,2013-02-15 15:51:00
10:10 AM,5.0,-0.4,78,30.32,10.0,NW,5.8,-,N/A,,Clear,320,2013-02-15 16:10:00
10:31 AM,5.0,1.4,85,30.32,10.0,NW,5.8,-,N/A,,Clear,310,2013-02-15 16:31:00
11:10 AM,8.6,3.2,79,30.33,10.0,WNW,4.6,-,N/A,,Clear,290,2013-02-15 17:10:00
11:51 AM,10.4,5.0,79,30.33,10.0,WNW,6.9,-,N/A,,Scattered Clouds,300,2013-02-15 17:51:00
12:11 PM,10.4,5.0,79,30.33,10.0,WNW,6.9,-,N/A,,Scattered Clouds,300,2013-02-15 18:11:00
12:31 PM,10.4,5.0,79,30.32,10.0,WNW,6.9,-,N/A,,Clear,300,2013-02-15 18:31:00
12:50 PM,10.4,5.0,79,30.32,10.0,WNW,8.1,-,N/A,,Clear,300,2013-02-15 18:50:00
1:11 PM,12.2,5.0,73,30.32,10.0,WNW,8.1,-,N/A,,Clear,300,2013-02-15 19:11:00
1:30 PM,12.2,6.8,79,30.32,10.0,WNW,9.2,-,N/A,,Clear,300,2013-02-15 19:30:00
1:50 PM,12.2,6.8,79,30.31,10.0,NW,9.2,-,N/A,,Clear,310,2013-02-15 19:50:00
2:11 PM,12.2,6.8,79,30.31,10.0,WNW,9.2,-,N/A,,Clear,300,2013-02-15 20:11:00
2:30 PM,12.2,6.8,79,30.31,10.0,WNW,9.2,-,N/A,,Clear,300,2013-02-15 20:30:00
2:50 PM,15.8,8.6,73,30.31,10.0,WNW,9.2,-,N/A,,Clear,300,2013-02-15 20:50:00
3:11 PM,15.8,8.6,73,30.31,10.0,WNW,10.4,-,N/A,,Clear,300,2013-02-15 21:11:00
3:31 PM,15.8,8.6,73,30.32,10.0,WNW,9.2,-,N/A,,Clear,300,2013-02-15 21:31:00
3:50 PM,15.8,8.6,73,30.32,10.0,WNW,6.9,-,N/A,,Clear,300,2013-02-15 21:50:00
4:10 PM,14.0,8.6,79,30.32,10.0,NW,6.9,-,N/A,,Clear,310,2013-02-15 22:10:00
4:31 PM,12.2,6.8,79,30.32,10.0,WNW,6.9,-,N/A,,Clear,300,2013-02-15 22:31:00
4:51 PM,12.2,6.8,79,30.31,10.0,WNW,6.9,-,N/A,,Clear,300,2013-02-15 22:51:00
5:10 PM,12.2,6.8,79,30.32,10.0,WNW,6.9,-,N/A,,Clear,290,2013-02-15 23:10:00
5:30 PM,12.2,5.0,73,30.32,10.0,WNW,9.2,-,N/A,,Clear,300,2013-02-15 23:30:00
5:50 PM,10.4,5.0,79,30.31,10.0,WNW,9.2,-,N/A,,Clear,300,2013-02-15 23:50:00
6:10 PM,10.4,5.0,79,30.31,10.0,WNW,5.8,-,N/A,,Clear,290,2013-02-16 00:10:00
6:30 PM,10.4,5.0,79,30.31,10.0,WNW,8.1,-,N/A,,Clear,290,2013-02-16 00:30:00
6:51 PM,8.6,3.2,79,30.31,10.0,WNW,5.8,-,N/A,,Clear,300,2013-02-16 00:51:00
7:10 PM,8.6,3.2,79,30.31,10.0,WNW,6.9,-,N/A,,Clear,290,2013-02-16 01:10:00
7:31 PM,8.6,3.2,79,30.30,10.0,WNW,6.9,-,N/A,,Clear,290,2013-02-16 01:31:00
7:50 PM,3.2,-0.4,85,30.30,10.0,WNW,4.6,-,N/A,,Clear,300,2013-02-16 01:50:00
8:10 PM,3.2,-0.4,85,30.30,10.0,WNW,3.5,-,N/A,,Clear,290,2013-02-16 02:10:00
8:31 PM,3.2,-0.4,85,30.30,10.0,WNW,4.6,-,N/A,,Clear,290,2013-02-16 02:31:00
8:50 PM,1.4,-4.0,78,30.30,10.0,Calm,Calm,-,N/A,,Clear,0,2013-02-16 02:50:00
9:10 PM,1.4,-4.0,78,30.30,5.0,West,6.9,-,N/A,Snow,Light Snow,280,2013-02-16 03:10:00
9:31 PM,3.2,-0.4,85,30.29,2.5,West,4.6,-,N/A,Snow,Light Snow,280,2013-02-16 03:31:00
9:50 PM,8.6,3.2,79,30.29,4.0,West,4.6,-,N/A,Snow,Light Snow,280,2013-02-16 03:50:00
10:11 PM,8.6,5.0,85,30.28,3.0,West,3.5,-,N/A,Snow,Light Snow,280,2013-02-16 04:11:00
10:31 PM,10.4,6.8,85,30.28,4.0,West,5.8,-,N/A,Snow,Light Snow,280,2013-02-16 04:31:00
10:50 PM,12.2,8.6,85,30.27,4.0,West,4.6,-,N/A,Snow,Light Snow,270,2013-02-16 04:50:00
11:11 PM,12.2,8.6,85,30.26,3.0,West,3.5,-,N/A,Snow,Light Snow,260,2013-02-16 05:11:00
11:31 PM,12.2,8.6,85,30.26,4.0,Calm,Calm,-,N/A,Snow,Light Snow,0,2013-02-16 05:31:00
11:50 PM,12.2,8.6,85,30.26,3.0,Calm,Calm,-,N/A,Snow,Light Snow,0,2013-02-16 05:50:00